Tracking 31027 objects as of 19-Jul-2025
HD Live streaming from Space Station
objects crossing your sky now

STARLINK-5820

Track STARLINK-5820 now!
10-day predictions
STARLINK-5820 is classified as:


NORAD ID: 55781
Int'l Code: 2023-028AS
Perigee: 577.2 km
Apogee: 581.2 km
Inclination: 70.0 °
Period: 96.1 minutes
Semi major axis: 6950 km
RCS: Unknown
Launch date: March 3, 2023
Source: United States (US)
Launch site: AIR FORCE WESTERN TEST RANGE (AFWTR)
Your satellite tracking list
ATLAS 5 CENTAUR DEB
Track 1 satellite(s)




NASA's NSSDC Master Catalog

Two Line Element Set (TLE):
1 55781U 23028AS  25199.41694239 -.00000192  00000-0 -82761-5 0  9998
2 55781  70.0000  95.0810 0002929 269.3379  90.7444 14.98330514131448
Source of the keplerian elements: AFSPC